Frankfort, KY

10:27 AM EDT on May 24, 2018 (GMT -0400)
Capital City

Weather History for KFFT - July, 2013

Change the Weather History Date:

Tuesday, July 9, 2013

  Actual Average Record
Temperature  
Mean Temperature 81 °F 76 °F  
Max Temperature 89 °F 87 °F 108 °F (1936)
Min Temperature 73 °F 66 °F 52 °F (1984)
Degree Days  
Heating Degree Days 0 0  
Month to date heating degree days 0 0  
Since 1 June heating degree days 2 10  
Since 1 July heating degree days 0 0  
Cooling Degree Days 16 11  
Month to date cooling degree days 71 99  
Year to date cooling degree days 431 434  
Since 1 June cooling degree days 312 335  
Growing Degree Days 30 (Base 50)    
Moisture  
Dew Point 72 °F    
Average Humidity 75    
Maximum Humidity 93    
Minimum Humidity 57    
Precipitation  
Precipitation 0.04 in 0.14 in 3.20 in (1991)
Month to date precipitation 5.09 1.14  
Year to date precipitation 30.27 24.70  
Sea Level Pressure  
Sea Level Pressure 30.07 in    
Wind  
Wind Speed 6 mph (SW)    
Max Wind Speed 14 mph    
Max Gust Speed 21 mph    
Visibility 9 miles    
Events Rain    
T = Trace of Precipitation, MM = Missing Value Source: NWS Daily Summary

Daily Weather History Graph

Daily Weather History Graph

Search for Another Location

Airport or City:

Astronomy

Jul. 09, 2013 Rise Set
Actual Time 6:24 AM EDT 9:04 PM EDT
Civil Twilight 5:53 AM EDT 9:35 PM EDT
Nautical Twilight 5:14 AM EDT 10:14 PM EDT
Astronomical Twilight 4:31 AM EDT 10:57 PM EDT
Moon 7:46 AM EDT (7/9) 9:44 PM EDT (7/9)
Length of Visible Light 15h 42m
Length of Day
14h 40m
New Moon, 2% of the Moon is Illuminated
Jul 9
New Moon
Jul 15
First Quarter
Jul 22
Full
Jul 29
Last Quarter
Aug 6
New

Hourly Weather History & Observations

Time (EDT) Temp. Heat Index Dew Point Humidity Pressure Visibility Wind Dir Wind Speed Gust Speed Precip Events Conditions
12:53 AM 73.9 °F - 70.0 °F 87% 30.10 in 10.0 mi SSW 4.6 mph - N/A   Clear
1:53 AM 75.0 °F - 70.0 °F 84% 30.09 in 10.0 mi WSW 3.5 mph - N/A   Clear
2:53 AM 73.0 °F - 70.0 °F 90% 30.07 in 10.0 mi SW 3.5 mph - N/A   Clear
3:53 AM 73.9 °F - 70.0 °F 87% 30.08 in 10.0 mi WSW 3.5 mph - N/A   Overcast
4:53 AM 75.0 °F - 70.0 °F 84% 30.09 in 10.0 mi SSW 3.5 mph - N/A   Scattered Clouds
5:53 AM 73.9 °F - 71.1 °F 91% 30.10 in 10.0 mi SW 3.5 mph - N/A   Clear
6:53 AM 73.0 °F - 71.1 °F 93% 30.11 in 3.0 mi NW 3.5 mph - 0.01 in Rain Rain
7:01 AM 73.4 °F - 71.6 °F 94% 30.13 in 2.0 mi Calm Calm - 0.03 in Rain Rain
7:11 AM 73.4 °F - 71.6 °F 94% 30.13 in 10.0 mi SSW 4.6 mph - 0.03 in Rain Light Rain
7:53 AM 73.9 °F - 72.0 °F 93% 30.11 in 10.0 mi SSW 6.9 mph - 0.03 in   Partly Cloudy
8:53 AM 77.0 °F - 72.0 °F 84% 30.10 in 10.0 mi SW 8.1 mph - N/A   Partly Cloudy
9:53 AM 81.0 °F 85.8 °F 73.0 °F 77% 30.09 in 10.0 mi WSW 8.1 mph - N/A   Clear
10:53 AM 82.9 °F 88.0 °F 72.0 °F 69% 30.09 in 10.0 mi Variable 6.9 mph - N/A   Clear
11:53 AM 84.9 °F 91.4 °F 73.0 °F 67% 30.09 in 10.0 mi West 11.5 mph 16.1 mph N/A   Clear
12:53 PM 87.1 °F 94.5 °F 73.0 °F 63% 30.09 in 10.0 mi SW 10.4 mph - N/A   Partly Cloudy
1:53 PM 88.0 °F 95.6 °F 73.0 °F 61% 30.08 in 10.0 mi SW 9.2 mph - N/A   Mostly Cloudy
2:53 PM 87.1 °F 94.5 °F 73.0 °F 63% 30.07 in 10.0 mi WSW 5.8 mph - N/A   Partly Cloudy
3:53 PM 86.0 °F 90.7 °F 70.0 °F 59% 30.04 in 10.0 mi SW 13.8 mph - N/A   Partly Cloudy
4:53 PM 87.1 °F 93.6 °F 72.0 °F 61% 30.02 in 10.0 mi SW 5.8 mph - N/A   Partly Cloudy
5:53 PM 86.0 °F 93.0 °F 73.0 °F 65% 30.03 in 10.0 mi WSW 4.6 mph - N/A   Partly Cloudy
6:53 PM 84.9 °F 91.4 °F 73.0 °F 67% 30.02 in 10.0 mi Calm Calm - N/A   Clear
7:53 PM 82.0 °F 86.7 °F 72.0 °F 71% 30.01 in 10.0 mi SW 5.8 mph - N/A   Clear
8:53 PM 82.0 °F 87.4 °F 73.0 °F 74% 30.01 in 10.0 mi South 4.6 mph - N/A   Clear
9:53 PM 81.0 °F 85.2 °F 72.0 °F 74% 30.01 in 10.0 mi South 4.6 mph - N/A   Clear
10:53 PM 80.1 °F 83.8 °F 72.0 °F 76% 30.02 in 10.0 mi South 5.8 mph - N/A   Clear
11:53 PM 78.1 °F - 72.0 °F 81% 30.02 in 10.0 mi South 3.5 mph - N/A   Clear